Regional Weather Roundup
Issued by NWS

Home | Current Version | Previous Version | Graphics & Text | Print | Product List | Glossary On
Versions: 1 2 3 4 5 6 7 8 9 10 11 12 13 14 15 16 17 18 19 20 21 22 23 24 25 26 27 28 29 30 31 32 33 34 35 36 37 38 39 40 41 42 43 44 45 46 47 48 49 50
000
ASUS45 KABQ 050710
RWRNM
NEW MEXICO REGIONAL WEATHER ROUNDUP
NATIONAL WEATHER SERVICE ALBUQUERQUE NM
100 AM MDT SUN JUL 05 2015

NOTE: "FAIR" MEANS FEW OR NO CLOUDS BELOW 12,000 FEET AGL WITH NO
       SIGNIFICANT WEATHER OR OBSTRUCTIONS TO VISION.

      THIS PRODUCT IS RELEASED AS TWO VERSIONS.  ONE VERSION NEAR
      THE TOP OF THE HOUR CONTAINING PRELIMINARY DATA FROM ALBUQUERQUE
      AND OTHER STATIONS.  A FINAL VERSION WITH ADDITIONAL DATA IS
      ISSUED ABOUT 10 MINUTES AFTER THE HOUR.

NMZ501-503-504-510>518-050800-
NORTHWEST PLATEAU/NORTHCENTRAL MOUNTAINS

CITY           SKY/WX    TMP DP  RH WIND       PRES   REMARKS
FARMINGTON     MOCLDY    65  58  78 E6        30.16R
LOS ALAMOS     CLOUDY    67  51  56 W5        30.26S
SANTA FE       CLOUDY    66  55  67 SE3       30.19F
TAOS           PTCLDY    59  43  55 E5        30.25S
ANGEL FIRE     FAIR      49  48  97 CALM      30.34F

$$
NMZ402-403-502-505>509-050800-
WESTCENTRAL MOUNTAINS/SOUTHWEST MOUNTAINS

CITY           SKY/WX    TMP DP  RH WIND       PRES   REMARKS
GALLUP         MOCLDY    64  56  75 CALM      30.23F
GRANTS         CLOUDY    62  57  84 CALM      30.26R
SILVER CITY      N/A     64  63  94 E5        30.20S

$$
NMZ407-409-411-412-050800-
SOUTHERN DESERTS

CITY           SKY/WX    TMP DP  RH WIND       PRES   REMARKS
LORDSBURG      FAIR      73  61  64 S7        30.08F
DEMING         LGT RAIN  68  65  90 CALM      30.11S
LAS CRUCES     CLOUDY    69  64  85 W10       30.11S
HOLLOMAN AFB   MOCLDY    77  55  45 CALM      30.04F
ALAMOGORDO     MOCLDY    77  55  47 S5        30.07S
T OR C         CLOUDY    69  64  84 W10       30.10F

$$
NMZ519>523-050800-
CENTRAL VALLEYS/CENTRAL HIGHLANDS

CITY           SKY/WX    TMP DP  RH WIND       PRES   REMARKS
ALBUQUERQUE    CLOUDY    72  57  59 SE7       30.14F
DOUBLE EAGLE   MOCLDY    64  57  79 NW6       30.17F
MORIARTY ARPT    N/A     60  55  82 CALM      30.20F
CLINES CORNERS   N/A     61  52  72 W9        30.23F
BELEN          FAIR      71  54  54 W5        30.13F
SOCORRO        FAIR      70  59  67 SE6       30.11S

$$
NMZ524>526-539-540-050800-
SOUTHCENTRAL MOUNTAINS

CITY           SKY/WX    TMP DP  RH WIND       PRES   REMARKS
RUIDOSO        MOCLDY    64  54  68 CALM      30.26F

$$
NMZ527>531-050800-
NORTHEAST HIGHLANDS/NORTHEAST PLAINS

CITY           SKY/WX    TMP DP  RH WIND       PRES   REMARKS
LAS VEGAS      MOCLDY    61  53  75 S13       30.21F
RATON          PTCLDY    59  53  80 CALM      30.14F
CLAYTON        PTCLDY    68  56  65 SW10      30.05F

$$
NMZ532>537-050800-
EASTCENTRAL PLAINS

CITY           SKY/WX    TMP DP  RH WIND       PRES   REMARKS
TUCUMCARI      PTCLDY    72  58  61 SW7       30.01F
CANNON AFB     PTCLDY    69  62  78 S7        30.07S
CLOVIS AIRPORT MOCLDY    70  59  68 S8          N/A

$$
NMZ028-029-538-050800-
SOUTHEAST PLAINS

CITY           SKY/WX    TMP DP  RH WIND       PRES   REMARKS
ROSWELL        CLEAR     73  56  54 S6        30.02S
ARTESIA        PTCLDY    73  59  60 SE7       30.03S
CARLSBAD       PTCLDY    75  61  61 S6        30.00S
HOBBS          PTCLDY    72  61  68 S7        30.05F


$$


USA.gov is the U.S. government's official web portal to all federal, state and local government web resources and services.